#timestamp,LO_Frequency,Hit,StdDev 
1637373615.3,286047000.6,N
1637373635.2,286046998.1,N
1637373655.0,286046998.5,N
1637373655.9,286046998.5,N
1637373675.8,286047000.4,N
1637373695.6,286047000.1,N
1637373715.4,286047000.8,N
1637373735.3,286047000.9,N
1637373755.1,286047000.2,N
1637373775.8,286047002.7,N
1637373795.7,286047000.0,N
1637373815.5,286047000.4,N
1637373835.4,286047000.2,N
1637373855.2,286047000.0,N
1637373875.0,286047000.4,N
1637373875.9,286047000.4,N
1637373895.8,286046998.5,N
1637373915.6,286047000.4,N
1637373935.5,286047002.8,N
1637373955.3,286047000.5,N
1637373975.1,286047001.1,N
1637373995.9,286047000.1,N
1637374015.7,286047000.4,N
1637374035.5,286047000.1,N
1637374055.4,286047002.1,N
1637374075.2,286047002.6,N
1637374095.1,286047001.5,N
1637374096.0,286047001.5,N
1637374115.8,286047002.1,N
1637374135.6,286047002.1,N
1637374155.5,286047002.1,N
1637374175.3,286047002.2,N
1637374195.2,286047002.6,N
1637374215.9,286046999.7,N
1637374235.7,286046999.0,N
1637374255.6,286047000.4,N
1637374275.4,286046998.8,N
1637374295.3,286047001.0,N
1637374315.1,286046998.6,N
1637374316.0,286046998.6,N
1637374335.8,286046998.6,N
1637374355.7,286046999.6,N
1637374375.5,286046998.9,N
1637374395.3,286046998.4,N
1637374415.2,286046998.6,N
1637374435.0,286046999.6,N
1637374435.9,286046999.6,N
1637374455.8,286046998.3,N
1637374475.6,286046998.2,N
1637374495.4,286047000.8,N
1637374515.3,286047000.3,N
1637374535.1,286047000.5,N
1637374555.8,286047000.8,N
1637374575.7,286047002.4,N
1637374595.5,286047000.2,N
1637374615.4,286047000.1,N
1637374635.2,286047002.7,N
1637374655.0,286047000.3,N
1637374655.9,286047000.3,N
1637374675.8,286046999.9,N
1637374695.6,286047002.2,N
1637374715.4,286047001.7,N
1637374735.3,286047003.3,N
1637374755.1,286047003.9,N
1637374775.9,286047002.5,N
1637374795.7,286047004.3,N
1637374815.5,286047001.4,N
1637374835.4,286047003.7,N
1637374855.2,286047002.1,N
1637374875.0,286047002.0,N
1637374875.9,286047002.0,N
1637374895.8,286047001.6,N
1637374915.6,286047004.2,N
1637374935.5,286047001.7,N
1637374955.3,286047004.4,N
1637374975.1,286047004.0,N
1637374995.9,286047002.1,N
1637375015.7,286047002.1,N
1637375035.5,286047002.3,N
1637375055.4,286047001.5,N
1637375075.2,286047001.6,N
1637375095.1,286047003.2,N
1637375096.0,286047003.2,N
1637375115.8,286047003.3,N
1637375135.6,286047003.8,N
1637375155.5,286047004.3,Y
1637375175.3,286046999.9,P
1637375195.2,286047000.9,N
1637375215.9,286046999.9,N
1637375235.7,286047002.6,N
1637375255.6,286047004.4,Y
1637375275.4,286047001.5,P
1637375295.2,286047001.0,P
1637375315.1,286046998.5,P
1637375316.0,286046998.5,N
1637375335.8,286047000.7,N
1637375355.7,286046996.5,N
1637375375.5,286046999.6,N
1637375395.3,286046998.9,N
1637375415.2,286046999.0,N
1637375435.0,286046998.8,N
1637375435.9,286046998.8,N
1637375455.7,286046998.1,N
1637375475.6,286047001.1,N
1637375495.4,286046998.7,N
1637375515.3,286046998.7,N
1637375535.1,286046998.6,N
1637375536.0,286046998.6,N
1637375555.8,286047001.0,N
1637375575.7,286047000.8,N
1637375595.5,286047001.2,N
1637375615.3,286047000.7,N
1637375635.2,286046998.9,N
1637375655.0,286046998.4,N
1637375655.9,286046998.4,N
1637375675.8,286047000.0,N
1637375695.6,286047001.9,N
1637375715.4,286046999.7,N
1637375735.3,286047000.9,N
1637375755.1,286047002.7,N
1637375775.8,286047001.1,N
1637375795.7,286047001.0,N
1637375815.5,286046999.9,N
1637375835.4,286047000.4,N
1637375855.2,286046998.1,N
1637375875.0,286047000.3,N
1637375875.9,286047000.3,N
1637375895.8,286047002.8,N
1637375915.6,286047002.0,N
1637375935.4,286047001.3,N
1637375955.3,286046999.7,N
1637375975.1,286047002.2,N
1637375995.9,286047002.6,N
1637376015.7,286047002.5,N
1637376035.5,286047000.6,N
1637376055.4,286047004.4,Y
1637376075.2,286047001.9,P
1637376095.1,286047000.0,N
1637376096.0,286047000.0,N
1637376115.8,286047002.7,Y
1637376135.6,286047000.1,P
1637376155.5,286047000.7,N
1637376175.3,286047000.5,N
1637376195.1,286047000.0,N
1637376215.9,286047002.7,Y
1637376235.7,286046999.9,P
1637376255.6,286047002.5,P
1637376275.4,286047002.1,N
1637376295.2,286046999.9,N
1637376315.1,286047002.8,N
1637376316.0,286047002.8,N
1637376335.8,286047001.8,N
1637376355.7,286047004.1,Y
1637376375.5,286047000.6,P
1637376395.3,286047000.0,N
1637376415.2,286047000.1,N
1637376435.9,286047000.1,N
1637376455.7,286047002.8,Y
1637376475.6,286047000.4,P
1637376495.4,286047001.1,P
1637376515.3,286047000.7,N
1637376535.1,286047000.0,N
1637376536.0,286047011.9,Y
1637376555.8,286046998.1,P
1637376575.7,286047001.0,N
1637376595.5,286047002.7,N
1637376615.4,286047002.1,N
1637376635.2,286047002.6,N
1637376655.0,286047002.7,N
1637376655.9,286047002.7,N
1637376675.8,286046999.8,N
1637376695.6,286046999.8,N
1637376715.4,286047001.6,N
1637376735.3,286047004.2,N
1637376755.1,286047002.6,N
1637376775.9,286047002.4,N
1637376795.7,286047001.4,N
1637376815.5,286047004.1,N
1637376835.4,286046999.9,N
1637376855.2,286046999.0,N
1637376875.1,286046999.4,N
1637376876.0,286046999.4,N
1637376895.8,286046995.8,N
1637376915.6,286046995.5,N
1637376935.5,286046997.7,N
1637376955.3,286046993.7,N
1637376975.1,286046994.8,N
1637376995.9,286046994.3,N
1637377015.7,286046990.3,Y
1637377035.6,286046988.7,P
1637377055.4,286046989.1,N
1637377075.2,286046989.8,N
1637377095.1,286046990.6,N
1637377096.0,286046990.6,N
1637377115.8,286046997.2,N
1637377135.7,286047000.7,N
1637377155.5,286047002.8,N
1637377175.3,286047001.0,N
1637377195.2,286047000.5,N
